Time,TemperatureF,DewpointF,PressureIn,WindDirection,WindDirectionDegrees,WindSpeedMPH,WindSpeedGustMPH,Humidity,HourlyPrecipIn,Conditions,Clouds,dailyrainin,SoftwareType,DateUTC
2013-09-15 00:00:00,52.5,47.0,30.10,WNW,301,0.0,0.0,80,0.00,,,0.00,oem by Ross Wheeler,2013-09-15 04:00:00,
2013-09-15 00:05:00,52.4,46.0,30.11,WNW,301,0.0,0.0,80,0.00,,,0.00,oem by Ross Wheeler,2013-09-15 04:05:00,
2013-09-15 00:10:00,52.3,46.0,30.11,WNW,301,0.0,0.0,80,0.00,,,0.00,oem by Ross Wheeler,2013-09-15 04:10:00,
2013-09-15 00:15:00,52.1,46.0,30.11,WNW,301,0.0,0.0,81,0.00,,,0.00,oem by Ross Wheeler,2013-09-15 04:15:00,
2013-09-15 00:25:00,51.8,47.0,30.11,WNW,301,0.0,0.0,82,0.00,,,0.00,oem by Ross Wheeler,2013-09-15 04:25:00,
2013-09-15 00:31:00,51.7,47.0,30.10,WNW,301,0.0,0.0,83,0.00,,,0.00,oem by Ross Wheeler,2013-09-15 04:31:00,
2013-09-15 00:40:00,51.4,46.0,30.10,WNW,301,0.0,0.0,83,0.00,,,0.00,oem by Ross Wheeler,2013-09-15 04:40:00,
2013-09-15 00:45:00,51.2,46.0,30.10,WNW,301,0.0,0.0,83,0.00,,,0.00,oem by Ross Wheeler,2013-09-15 04:45:00,
2013-09-15 00:55:00,51.1,46.0,30.11,WNW,301,0.0,0.0,84,0.00,,,0.00,oem by Ross Wheeler,2013-09-15 04:55:00,
2013-09-15 01:01:00,50.9,46.0,30.10,WNW,301,0.0,0.0,84,0.00,,,0.00,oem by Ross Wheeler,2013-09-15 05:01:00,
2013-09-15 01:11:00,50.6,46.0,30.10,WNW,301,0.0,0.0,84,0.00,,,0.00,oem by Ross Wheeler,2013-09-15 05:11:00,
2013-09-15 01:16:00,50.6,46.0,30.11,WNW,301,0.0,0.0,85,0.00,,,0.00,oem by Ross Wheeler,2013-09-15 05:16:00,
2013-09-15 01:25:00,50.6,47.0,30.11,WNW,301,0.0,0.0,86,0.00,,,0.00,oem by Ross Wheeler,2013-09-15 05:25:00,
2013-09-15 01:31:00,50.5,47.0,30.11,WNW,301,0.0,0.0,86,0.00,,,0.00,oem by Ross Wheeler,2013-09-15 05:31:00,
2013-09-15 01:40:00,50.5,47.0,30.11,WNW,301,0.0,0.0,86,0.00,,,0.00,oem by Ross Wheeler,2013-09-15 05:40:00,
2013-09-15 01:45:00,50.5,47.0,30.11,WNW,301,0.0,0.0,87,0.00,,,0.00,oem by Ross Wheeler,2013-09-15 05:45:00,
2013-09-15 01:55:00,50.6,47.0,30.11,WNW,301,0.0,0.0,87,0.00,,,0.00,oem by Ross Wheeler,2013-09-15 05:55:00,
2013-09-15 02:01:00,50.5,47.0,30.11,WNW,301,0.0,0.0,87,0.00,,,0.00,oem by Ross Wheeler,2013-09-15 06:01:00,
2013-09-15 02:10:00,50.3,46.0,30.11,WNW,301,0.0,0.0,86,0.00,,,0.00,oem by Ross Wheeler,2013-09-15 06:10:00,
2013-09-15 02:15:00,50.2,46.0,30.11,WNW,301,0.0,0.0,86,0.00,,,0.00,oem by Ross Wheeler,2013-09-15 06:15:00,
2013-09-15 02:25:00,50.2,46.0,30.11,WNW,301,0.0,0.0,86,0.00,,,0.00,oem by Ross Wheeler,2013-09-15 06:25:00,
2013-09-15 02:31:00,50.2,46.0,30.11,WNW,301,0.0,0.0,86,0.00,,,0.00,oem by Ross Wheeler,2013-09-15 06:31:00,
2013-09-15 02:40:00,50.0,46.0,30.11,West,279,0.0,0.0,85,0.00,,,0.00,oem by Ross Wheeler,2013-09-15 06:40:00,
2013-09-15 02:45:00,50.0,46.0,30.11,West,279,0.0,0.0,85,0.00,,,0.00,oem by Ross Wheeler,2013-09-15 06:45:00,
2013-09-15 02:55:00,50.0,46.0,30.11,West,275,0.0,0.0,85,0.00,,,0.00,oem by Ross Wheeler,2013-09-15 06:55:00,
2013-09-15 03:01:00,50.0,46.0,30.11,West,275,0.0,0.0,85,0.00,,,0.00,oem by Ross Wheeler,2013-09-15 07:01:00,
2013-09-15 03:05:00,50.0,46.0,30.11,West,275,0.0,0.0,85,0.00,,,0.00,oem by Ross Wheeler,2013-09-15 07:05:00,
2013-09-15 03:15:00,49.9,46.0,30.11,West,275,0.0,0.0,85,0.00,,,0.00,oem by Ross Wheeler,2013-09-15 07:15:00,
2013-09-15 03:25:00,49.7,45.0,30.12,West,274,0.0,0.0,85,0.00,,,0.00,oem by Ross Wheeler,2013-09-15 07:25:00,
2013-09-15 03:30:00,49.7,45.0,30.12,West,274,1.0,0.0,85,0.00,,,0.00,oem by Ross Wheeler,2013-09-15 07:30:00,
2013-09-15 03:40:00,49.6,46.0,30.12,West,274,0.0,0.0,86,0.00,,,0.00,oem by Ross Wheeler,2013-09-15 07:40:00,
2013-09-15 03:45:00,49.6,46.0,30.12,WSW,258,0.0,0.0,86,0.00,,,0.00,oem by Ross Wheeler,2013-09-15 07:45:00,
2013-09-15 03:55:00,49.6,46.0,30.12,WSW,258,0.0,0.0,86,0.00,,,0.00,oem by Ross Wheeler,2013-09-15 07:55:00,
2013-09-15 04:01:00,49.4,45.0,30.13,WSW,258,0.0,0.0,86,0.00,,,0.00,oem by Ross Wheeler,2013-09-15 08:01:00,
2013-09-15 04:10:00,49.3,45.0,30.13,WSW,258,0.0,0.0,86,0.00,,,0.00,oem by Ross Wheeler,2013-09-15 08:10:00,
2013-09-15 04:15:00,49.3,45.0,30.13,WSW,258,0.0,0.0,86,0.00,,,0.00,oem by Ross Wheeler,2013-09-15 08:15:00,
2013-09-15 04:25:00,49.1,45.0,30.13,WSW,258,0.0,0.0,86,0.00,,,0.00,oem by Ross Wheeler,2013-09-15 08:25:00,
2013-09-15 04:31:00,49.0,45.0,30.13,WSW,258,0.0,0.0,86,0.00,,,0.00,oem by Ross Wheeler,2013-09-15 08:31:00,
2013-09-15 04:40:00,49.0,45.0,30.13,WSW,258,0.0,0.0,86,0.00,,,0.00,oem by Ross Wheeler,2013-09-15 08:40:00,
2013-09-15 04:45:00,48.8,45.0,30.13,WSW,258,0.0,0.0,86,0.00,,,0.00,oem by Ross Wheeler,2013-09-15 08:45:00,
2013-09-15 04:55:00,48.7,45.0,30.13,WSW,258,0.0,0.0,87,0.00,,,0.00,oem by Ross Wheeler,2013-09-15 08:55:00,
2013-09-15 05:01:00,48.6,45.0,30.13,WSW,258,0.0,0.0,87,0.00,,,0.00,oem by Ross Wheeler,2013-09-15 09:01:00,
2013-09-15 05:10:00,48.4,45.0,30.13,WSW,258,0.0,0.0,88,0.00,,,0.00,oem by Ross Wheeler,2013-09-15 09:10:00,
2013-09-15 05:16:00,48.4,45.0,30.13,WSW,258,0.0,0.0,88,0.00,,,0.00,oem by Ross Wheeler,2013-09-15 09:16:00,
2013-09-15 05:25:00,48.4,45.0,30.13,WSW,258,0.0,0.0,88,0.00,,,0.00,oem by Ross Wheeler,2013-09-15 09:25:00,
2013-09-15 05:30:00,48.3,45.0,30.13,WSW,258,0.0,0.0,88,0.00,,,0.00,oem by Ross Wheeler,2013-09-15 09:30:00,
2013-09-15 05:40:00,48.1,45.0,30.13,WSW,258,0.0,0.0,88,0.00,,,0.00,oem by Ross Wheeler,2013-09-15 09:40:00,
2013-09-15 05:45:00,48.1,45.0,30.13,WSW,258,0.0,0.0,88,0.00,,,0.00,oem by Ross Wheeler,2013-09-15 09:45:00,
2013-09-15 05:55:00,48.3,45.0,30.14,West,263,0.0,0.0,88,0.00,,,0.00,oem by Ross Wheeler,2013-09-15 09:55:00,
2013-09-15 06:00:00,48.3,45.0,30.14,NW,318,0.0,0.0,88,0.00,,,0.00,oem by Ross Wheeler,2013-09-15 10:00:00,
2013-09-15 06:10:00,48.4,45.0,30.14,WSW,253,0.0,0.0,88,0.00,,,0.00,oem by Ross Wheeler,2013-09-15 10:10:00,
2013-09-15 06:16:00,48.4,45.0,30.14,WSW,253,0.0,0.0,88,0.00,,,0.00,oem by Ross Wheeler,2013-09-15 10:16:00,
2013-09-15 06:25:00,48.4,45.0,30.14,WSW,253,0.0,0.0,88,0.00,,,0.00,oem by Ross Wheeler,2013-09-15 10:25:00,
2013-09-15 06:30:00,48.4,45.0,30.14,WSW,253,0.0,0.0,88,0.00,,,0.00,oem by Ross Wheeler,2013-09-15 10:30:00,
2013-09-15 06:40:00,48.4,45.0,30.15,WSW,253,0.0,0.0,89,0.00,,,0.00,oem by Ross Wheeler,2013-09-15 10:40:00,
2013-09-15 06:46:00,48.4,45.0,30.15,WSW,253,0.0,0.0,89,0.00,,,0.00,oem by Ross Wheeler,2013-09-15 10:46:00,
2013-09-15 06:55:00,48.1,45.0,30.16,WSW,253,0.0,0.0,88,0.00,,,0.00,oem by Ross Wheeler,2013-09-15 10:55:00,
2013-09-15 07:00:00,48.1,45.0,30.16,WSW,253,0.0,0.0,88,0.00,,,0.00,oem by Ross Wheeler,2013-09-15 11:00:00,
2013-09-15 07:10:00,48.1,45.0,30.16,WSW,253,0.0,0.0,89,0.00,,,0.00,oem by Ross Wheeler,2013-09-15 11:10:00,
2013-09-15 07:15:00,48.1,45.0,30.16,WSW,253,0.0,0.0,89,0.00,,,0.00,oem by Ross Wheeler,2013-09-15 11:15:00,
2013-09-15 07:25:00,48.1,45.0,30.16,WSW,253,0.0,0.0,88,0.00,,,0.00,oem by Ross Wheeler,2013-09-15 11:25:00,
2013-09-15 07:31:00,48.1,45.0,30.16,WSW,253,0.0,0.0,88,0.00,,,0.00,oem by Ross Wheeler,2013-09-15 11:31:00,
2013-09-15 07:40:00,48.4,45.0,30.17,WSW,253,0.0,0.0,88,0.00,,,0.00,oem by Ross Wheeler,2013-09-15 11:40:00,
2013-09-15 07:45:00,48.6,45.0,30.17,WSW,253,0.0,0.0,87,0.00,,,0.00,oem by Ross Wheeler,2013-09-15 11:45:00,
2013-09-15 07:55:00,48.8,45.0,30.17,WSW,253,0.0,0.0,87,0.00,,,0.00,oem by Ross Wheeler,2013-09-15 11:55:00,
2013-09-15 08:00:00,49.1,45.0,30.17,WSW,253,0.0,0.0,87,0.00,,,0.00,oem by Ross Wheeler,2013-09-15 12:00:00,
2013-09-15 08:10:00,49.4,45.0,30.17,WSW,253,0.0,0.0,86,0.00,,,0.00,oem by Ross Wheeler,2013-09-15 12:10:00,
2013-09-15 08:16:00,49.6,46.0,30.17,WSW,253,0.0,0.0,86,0.00,,,0.00,oem by Ross Wheeler,2013-09-15 12:16:00,
2013-09-15 08:25:00,50.0,46.0,30.18,WSW,253,0.0,0.0,85,0.00,,,0.00,oem by Ross Wheeler,2013-09-15 12:25:00,
2013-09-15 08:31:00,50.2,46.0,30.18,WSW,253,0.0,0.0,85,0.00,,,0.00,oem by Ross Wheeler,2013-09-15 12:31:00,
2013-09-15 08:40:00,50.8,47.0,30.18,WSW,248,0.0,0.0,85,0.00,,,0.00,oem by Ross Wheeler,2013-09-15 12:40:00,
2013-09-15 08:46:00,51.1,47.0,30.18,WSW,248,0.0,0.0,85,0.00,,,0.00,oem by Ross Wheeler,2013-09-15 12:46:00,
2013-09-15 08:55:00,51.7,47.0,30.18,WSW,237,0.0,0.0,83,0.00,,,0.00,oem by Ross Wheeler,2013-09-15 12:55:00,
2013-09-15 09:01:00,51.8,46.0,30.18,WSW,237,0.0,0.0,81,0.00,,,0.00,oem by Ross Wheeler,2013-09-15 13:01:00,
2013-09-15 09:10:00,52.4,47.0,30.19,SSW,198,0.0,0.0,81,0.00,,,0.00,oem by Ross Wheeler,2013-09-15 13:10:00,
2013-09-15 09:15:00,52.7,46.0,30.19,SSW,198,0.0,0.0,79,0.00,,,0.00,oem by Ross Wheeler,2013-09-15 13:15:00,
2013-09-15 09:25:00,53.3,47.0,30.18,SSW,205,0.0,0.0,79,0.00,,,0.00,oem by Ross Wheeler,2013-09-15 13:25:00,
2013-09-15 09:31:00,53.7,47.0,30.18,SSW,205,0.0,0.0,79,0.00,,,0.00,oem by Ross Wheeler,2013-09-15 13:31:00,
2013-09-15 09:40:00,54.3,48.0,30.19,SSW,205,0.0,0.0,78,0.00,,,0.00,oem by Ross Wheeler,2013-09-15 13:40:00,
2013-09-15 09:46:00,54.8,47.0,30.19,SSW,205,0.0,0.0,76,0.00,,,0.00,oem by Ross Wheeler,2013-09-15 13:46:00,
2013-09-15 09:55:00,55.7,47.0,30.19,SSW,205,0.0,0.0,73,0.00,,,0.00,oem by Ross Wheeler,2013-09-15 13:55:00,
2013-09-15 10:01:00,55.8,47.0,30.19,SSW,205,0.0,0.0,73,0.00,,,0.00,oem by Ross Wheeler,2013-09-15 14:01:00,
2013-09-15 10:10:00,56.7,48.0,30.19,SSW,202,0.0,0.0,72,0.00,,,0.00,oem by Ross Wheeler,2013-09-15 14:10:00,
2013-09-15 10:16:00,57.3,48.0,30.19,SW,223,1.0,0.0,71,0.00,,,0.00,oem by Ross Wheeler,2013-09-15 14:16:00,
2013-09-15 10:25:00,58.2,48.0,30.19,WSW,246,0.0,0.0,68,0.00,,,0.00,oem by Ross Wheeler,2013-09-15 14:25:00,
2013-09-15 10:31:00,58.8,49.0,30.19,West,278,0.0,0.0,70,0.00,,,0.00,oem by Ross Wheeler,2013-09-15 14:31:00,
2013-09-15 10:40:00,59.4,50.0,30.18,SW,233,1.0,0.0,70,0.00,,,0.00,oem by Ross Wheeler,2013-09-15 14:40:00,
2013-09-15 10:45:00,59.7,49.0,30.18,SSW,198,0.0,0.0,67,0.00,,,0.00,oem by Ross Wheeler,2013-09-15 14:45:00,
2013-09-15 10:55:00,60.4,48.0,30.18,South,191,2.0,0.0,63,0.00,,,0.00,oem by Ross Wheeler,2013-09-15 14:55:00,
2013-09-15 11:00:00,60.8,47.0,30.18,SSW,200,0.0,0.0,60,0.00,,,0.00,oem by Ross Wheeler,2013-09-15 15:00:00,
2013-09-15 11:10:00,61.6,48.0,30.18,WSW,248,0.0,0.0,62,0.00,,,0.00,oem by Ross Wheeler,2013-09-15 15:10:00,
2013-09-15 11:16:00,61.9,49.0,30.18,NNW,343,2.0,0.0,62,0.00,,,0.00,oem by Ross Wheeler,2013-09-15 15:16:00,
2013-09-15 11:25:00,62.3,47.0,30.17,WNW,284,1.0,0.0,58,0.00,,,0.00,oem by Ross Wheeler,2013-09-15 15:25:00,
2013-09-15 11:31:00,62.6,47.0,30.17,WSW,237,0.0,0.0,58,0.00,,,0.00,oem by Ross Wheeler,2013-09-15 15:31:00,
2013-09-15 11:40:00,63.2,48.0,30.17,SSW,202,1.0,0.0,58,0.00,,,0.00,oem by Ross Wheeler,2013-09-15 15:40:00,
2013-09-15 11:45:00,63.5,48.0,30.17,SSE,151,0.0,0.0,58,0.00,,,0.00,oem by Ross Wheeler,2013-09-15 15:45:00,
2013-09-15 11:55:00,64.2,49.0,30.17,SSW,206,1.0,0.0,58,0.00,,,0.00,oem by Ross Wheeler,2013-09-15 15:55:00,
2013-09-15 12:00:00,64.4,48.0,30.17,South,188,0.0,0.0,55,0.00,,,0.00,oem by Ross Wheeler,2013-09-15 16:00:00,
2013-09-15 12:10:00,65.3,45.0,30.16,SW,227,1.0,0.0,49,0.00,,,0.00,oem by Ross Wheeler,2013-09-15 16:10:00,
2013-09-15 12:15:00,65.5,49.0,30.16,SW,220,0.0,0.0,55,0.00,,,0.00,oem by Ross Wheeler,2013-09-15 16:15:00,
2013-09-15 12:25:00,66.1,48.0,30.16,SSW,205,2.0,0.0,52,0.00,,,0.00,oem by Ross Wheeler,2013-09-15 16:25:00,
2013-09-15 12:30:00,67.0,48.0,30.16,NNW,329,2.0,0.0,51,0.00,,,0.00,oem by Ross Wheeler,2013-09-15 16:30:00,
2013-09-15 12:40:00,68.0,47.0,30.16,South,171,4.0,0.0,47,0.00,,,0.00,oem by Ross Wheeler,2013-09-15 16:40:00,
2013-09-15 12:45:00,68.5,47.0,30.16,West,275,0.0,0.0,46,0.00,,,0.00,oem by Ross Wheeler,2013-09-15 16:45:00,
2013-09-15 12:55:00,69.5,48.0,30.15,WSW,255,0.0,0.0,46,0.00,,,0.00,oem by Ross Wheeler,2013-09-15 16:55:00,
2013-09-15 13:00:00,69.8,47.0,30.15,SW,226,0.0,0.0,45,0.00,,,0.00,oem by Ross Wheeler,2013-09-15 17:00:00,
2013-09-15 13:10:00,70.5,50.0,30.15,SW,215,0.0,0.0,49,0.00,,,0.00,oem by Ross Wheeler,2013-09-15 17:10:00,
2013-09-15 13:16:00,70.5,46.0,30.15,WSW,253,0.0,0.0,41,0.00,,,0.00,oem by Ross Wheeler,2013-09-15 17:16:00,
2013-09-15 13:25:00,70.8,48.0,30.14,SSW,209,0.0,0.0,44,0.00,,,0.00,oem by Ross Wheeler,2013-09-15 17:25:00,
2013-09-15 13:31:00,71.0,49.0,30.14,SSW,212,2.0,0.0,46,0.00,,,0.00,oem by Ross Wheeler,2013-09-15 17:31:00,
2013-09-15 13:40:00,70.8,48.0,30.13,SSE,157,8.0,0.0,45,0.00,,,0.00,oem by Ross Wheeler,2013-09-15 17:40:00,
2013-09-15 13:45:00,70.7,46.0,30.13,WSW,243,2.0,0.0,41,0.00,,,0.00,oem by Ross Wheeler,2013-09-15 17:45:00,
2013-09-15 13:55:00,71.0,46.0,30.13,South,185,7.0,0.0,41,0.00,,,0.00,oem by Ross Wheeler,2013-09-15 17:55:00,
2013-09-15 14:01:00,71.2,46.0,30.13,South,181,2.0,0.0,40,0.00,,,0.00,oem by Ross Wheeler,2013-09-15 18:01:00,
2013-09-15 14:10:00,72.0,45.0,30.12,WSW,255,0.0,0.0,38,0.00,,,0.00,oem by Ross Wheeler,2013-09-15 18:10:00,
2013-09-15 14:16:00,72.2,45.0,30.12,SW,230,2.0,0.0,38,0.00,,,0.00,oem by Ross Wheeler,2013-09-15 18:16:00,
2013-09-15 14:25:00,72.0,47.0,30.11,SSW,202,4.0,0.0,41,0.00,,,0.00,oem by Ross Wheeler,2013-09-15 18:25:00,
2013-09-15 14:31:00,71.9,47.0,30.11,SSW,196,2.0,0.0,42,0.00,,,0.00,oem by Ross Wheeler,2013-09-15 18:31:00,
2013-09-15 14:40:00,72.2,47.0,30.11,WSW,253,0.0,0.0,41,0.00,,,0.00,oem by Ross Wheeler,2013-09-15 18:40:00,
2013-09-15 14:46:00,72.2,46.0,30.11,SW,223,6.0,0.0,39,0.00,,,0.00,oem by Ross Wheeler,2013-09-15 18:46:00,
2013-09-15 14:55:00,71.2,49.0,30.11,SSW,206,0.0,0.0,45,0.00,,,0.00,oem by Ross Wheeler,2013-09-15 18:55:00,
2013-09-15 15:01:00,71.3,48.0,30.11,SSW,209,2.0,0.0,43,0.00,,,0.00,oem by Ross Wheeler,2013-09-15 19:01:00,
2013-09-15 15:10:00,71.7,46.0,30.10,SSW,205,0.0,0.0,40,0.00,,,0.00,oem by Ross Wheeler,2013-09-15 19:10:00,
2013-09-15 15:15:00,71.5,48.0,30.10,SSW,205,0.0,0.0,43,0.00,,,0.00,oem by Ross Wheeler,2013-09-15 19:15:00,
2013-09-15 15:25:00,71.3,46.0,30.10,SSW,200,4.0,0.0,40,0.00,,,0.00,oem by Ross Wheeler,2013-09-15 19:25:00,
2013-09-15 15:30:00,71.3,47.0,30.10,South,183,2.0,0.0,42,0.00,,,0.00,oem by Ross Wheeler,2013-09-15 19:30:00,
2013-09-15 15:40:00,70.5,46.0,30.09,SW,226,1.0,0.0,41,0.00,,,0.00,oem by Ross Wheeler,2013-09-15 19:40:00,
2013-09-15 15:45:00,70.7,46.0,30.09,WSW,255,1.0,0.0,42,0.00,,,0.00,oem by Ross Wheeler,2013-09-15 19:45:00,
2013-09-15 15:55:00,70.8,46.0,30.09,SSW,206,4.0,0.0,42,0.00,,,0.00,oem by Ross Wheeler,2013-09-15 19:55:00,
2013-09-15 16:00:00,71.0,47.0,30.09,SSW,196,1.0,0.0,43,0.00,,,0.00,oem by Ross Wheeler,2013-09-15 20:00:00,
2013-09-15 16:10:00,71.2,47.0,30.08,WSW,240,1.0,0.0,42,0.00,,,0.00,oem by Ross Wheeler,2013-09-15 20:10:00,
2013-09-15 16:15:00,71.2,46.0,30.08,SSW,203,5.0,0.0,41,0.00,,,0.00,oem by Ross Wheeler,2013-09-15 20:15:00,
2013-09-15 16:25:00,70.7,47.0,30.08,SSW,205,1.0,0.0,43,0.00,,,0.00,oem by Ross Wheeler,2013-09-15 20:25:00,
2013-09-15 16:31:00,70.7,47.0,30.08,SSW,213,5.0,0.0,43,0.00,,,0.00,oem by Ross Wheeler,2013-09-15 20:31:00,
2013-09-15 16:40:00,71.2,47.0,30.07,SSW,209,3.0,0.0,42,0.00,,,0.00,oem by Ross Wheeler,2013-09-15 20:40:00,
2013-09-15 16:45:00,71.2,47.0,30.07,South,169,0.0,0.0,43,0.00,,,0.00,oem by Ross Wheeler,2013-09-15 20:45:00,
2013-09-15 16:55:00,71.2,49.0,30.07,WSW,237,0.0,0.0,45,0.00,,,0.00,oem by Ross Wheeler,2013-09-15 20:55:00,
2013-09-15 17:00:00,71.0,48.0,30.07,SW,226,1.0,0.0,44,0.00,,,0.00,oem by Ross Wheeler,2013-09-15 21:00:00,
2013-09-15 17:10:00,71.0,48.0,30.07,SSW,213,5.0,0.0,44,0.00,,,0.00,oem by Ross Wheeler,2013-09-15 21:10:00,
2013-09-15 17:16:00,70.8,50.0,30.07,SSW,210,2.0,0.0,48,0.00,,,0.00,oem by Ross Wheeler,2013-09-15 21:16:00,
2013-09-15 17:25:00,70.7,49.0,30.06,South,181,3.0,0.0,47,0.00,,,0.00,oem by Ross Wheeler,2013-09-15 21:25:00,
2013-09-15 17:31:00,70.7,49.0,30.06,SSW,206,5.0,0.0,46,0.00,,,0.00,oem by Ross Wheeler,2013-09-15 21:31:00,
2013-09-15 17:40:00,70.5,49.0,30.06,SSW,203,3.0,0.0,47,0.00,,,0.00,oem by Ross Wheeler,2013-09-15 21:40:00,
2013-09-15 17:45:00,70.3,50.0,30.06,SW,224,3.0,0.0,48,0.00,,,0.00,oem by Ross Wheeler,2013-09-15 21:45:00,
2013-09-15 17:55:00,70.1,49.0,30.06,SSW,206,1.0,0.0,48,0.00,,,0.00,oem by Ross Wheeler,2013-09-15 21:55:00,
2013-09-15 18:01:00,70.0,49.0,30.06,SW,226,1.0,0.0,48,0.00,,,0.00,oem by Ross Wheeler,2013-09-15 22:01:00,
2013-09-15 18:10:00,69.6,50.0,30.07,SW,226,0.0,0.0,50,0.00,,,0.00,oem by Ross Wheeler,2013-09-15 22:10:00,
2013-09-15 18:16:00,69.5,50.0,30.07,SSW,206,2.0,0.0,50,0.00,,,0.00,oem by Ross Wheeler,2013-09-15 22:16:00,
2013-09-15 18:25:00,69.1,50.0,30.06,South,183,0.0,0.0,50,0.00,,,0.00,oem by Ross Wheeler,2013-09-15 22:25:00,
2013-09-15 18:30:00,69.0,49.0,30.06,SSW,210,1.0,0.0,49,0.00,,,0.00,oem by Ross Wheeler,2013-09-15 22:30:00,
2013-09-15 18:40:00,68.8,49.0,30.06,SSW,212,0.0,0.0,50,0.00,,,0.00,oem by Ross Wheeler,2013-09-15 22:40:00,
2013-09-15 18:45:00,68.6,49.0,30.06,SW,230,0.0,0.0,50,0.00,,,0.00,oem by Ross Wheeler,2013-09-15 22:45:00,
2013-09-15 18:55:00,68.3,50.0,30.05,SSW,207,0.0,0.0,52,0.00,,,0.00,oem by Ross Wheeler,2013-09-15 22:55:00,
2013-09-15 19:01:00,68.1,50.0,30.05,SSW,213,0.0,0.0,52,0.00,,,0.00,oem by Ross Wheeler,2013-09-15 23:01:00,
2013-09-15 19:10:00,67.8,51.0,30.05,SW,215,0.0,0.0,56,0.00,,,0.00,oem by Ross Wheeler,2013-09-15 23:10:00,
2013-09-15 19:15:00,67.3,50.0,30.05,SW,215,0.0,0.0,54,0.00,,,0.00,oem by Ross Wheeler,2013-09-15 23:15:00,
2013-09-15 19:25:00,66.8,50.0,30.05,SW,215,0.0,0.0,55,0.00,,,0.00,oem by Ross Wheeler,2013-09-15 23:25:00,
2013-09-15 19:31:00,66.5,50.0,30.06,SW,215,0.0,0.0,56,0.00,,,0.00,oem by Ross Wheeler,2013-09-15 23:31:00,
2013-09-15 19:40:00,66.1,51.0,30.06,SW,215,0.0,0.0,58,0.00,,,0.00,oem by Ross Wheeler,2013-09-15 23:40:00,
2013-09-15 19:46:00,66.0,51.0,30.06,SW,215,0.0,0.0,58,0.00,,,0.00,oem by Ross Wheeler,2013-09-15 23:46:00,
2013-09-15 19:55:00,65.5,51.0,30.06,SW,215,0.0,0.0,59,0.00,,,0.00,oem by Ross Wheeler,2013-09-15 23:55:00,
2013-09-15 20:01:00,65.3,51.0,30.06,SW,215,0.0,0.0,60,0.00,,,0.00,oem by Ross Wheeler,2013-09-16 00:01:00,
2013-09-15 20:10:00,65.0,52.0,30.06,SW,215,0.0,0.0,62,0.00,,,0.00,oem by Ross Wheeler,2013-09-16 00:10:00,
2013-09-15 20:15:00,64.8,51.0,30.06,SW,215,0.0,0.0,62,0.00,,,0.00,oem by Ross Wheeler,2013-09-16 00:15:00,
2013-09-15 20:25:00,64.4,51.0,30.06,SW,215,0.0,0.0,63,0.00,,,0.00,oem by Ross Wheeler,2013-09-16 00:25:00,
2013-09-15 20:31:00,64.2,52.0,30.06,SW,215,0.0,0.0,64,0.00,,,0.00,oem by Ross Wheeler,2013-09-16 00:31:00,
2013-09-15 20:40:00,64.0,52.0,30.07,SW,215,0.0,0.0,65,0.00,,,0.00,oem by Ross Wheeler,2013-09-16 00:40:00,
2013-09-15 20:46:00,63.9,52.0,30.07,SW,215,0.0,0.0,65,0.00,,,0.00,oem by Ross Wheeler,2013-09-16 00:46:00,
2013-09-15 20:55:00,63.5,52.0,30.06,SW,215,0.0,0.0,66,0.00,,,0.00,oem by Ross Wheeler,2013-09-16 00:55:00,
2013-09-15 21:00:00,63.4,52.0,30.06,SW,215,0.0,0.0,67,0.00,,,0.00,oem by Ross Wheeler,2013-09-16 01:00:00,
2013-09-15 21:10:00,63.1,52.0,30.07,SW,215,0.0,0.0,68,0.00,,,0.00,oem by Ross Wheeler,2013-09-16 01:10:00,
2013-09-15 21:15:00,63.1,52.0,30.07,SW,215,0.0,0.0,68,0.00,,,0.00,oem by Ross Wheeler,2013-09-16 01:15:00,
2013-09-15 21:25:00,62.7,52.0,30.07,SW,215,0.0,0.0,69,0.00,,,0.00,oem by Ross Wheeler,2013-09-16 01:25:00,
2013-09-15 21:31:00,62.6,53.0,30.07,SW,215,0.0,0.0,70,0.00,,,0.00,oem by Ross Wheeler,2013-09-16 01:31:00,
2013-09-15 21:40:00,62.4,54.0,30.07,SW,215,0.0,0.0,73,0.00,,,0.00,oem by Ross Wheeler,2013-09-16 01:40:00,
2013-09-15 21:45:00,61.9,54.0,30.07,SW,215,0.0,0.0,74,0.00,,,0.00,oem by Ross Wheeler,2013-09-16 01:45:00,
2013-09-15 21:55:00,61.5,52.0,30.07,SW,215,0.0,0.0,72,0.00,,,0.00,oem by Ross Wheeler,2013-09-16 01:55:00,
2013-09-15 22:01:00,61.5,52.0,30.07,SW,215,0.0,0.0,71,0.00,,,0.00,oem by Ross Wheeler,2013-09-16 02:01:00,
2013-09-15 22:10:00,61.6,52.0,30.07,SSW,202,3.0,0.0,71,0.00,,,0.00,oem by Ross Wheeler,2013-09-16 02:10:00,
2013-09-15 22:16:00,61.8,53.0,30.07,SW,216,0.0,0.0,72,0.00,,,0.00,oem by Ross Wheeler,2013-09-16 02:16:00,
2013-09-15 22:25:00,62.1,52.0,30.07,SW,226,2.0,0.0,70,0.00,,,0.00,oem by Ross Wheeler,2013-09-16 02:25:00,
2013-09-15 22:31:00,62.4,53.0,30.07,SSW,203,3.0,0.0,71,0.00,,,0.00,oem by Ross Wheeler,2013-09-16 02:31:00,
2013-09-15 22:40:00,62.7,53.0,30.08,SSW,212,3.0,0.0,70,0.00,,,0.00,oem by Ross Wheeler,2013-09-16 02:40:00,
2013-09-15 22:45:00,62.7,53.0,30.08,SW,220,2.0,0.0,70,0.00,,,0.00,oem by Ross Wheeler,2013-09-16 02:45:00,
2013-09-15 22:55:00,62.7,53.0,30.07,SSW,202,3.0,0.0,71,0.00,,,0.00,oem by Ross Wheeler,2013-09-16 02:55:00,
2013-09-15 23:01:00,62.6,53.0,30.07,SW,229,1.0,0.0,71,0.00,,,0.00,oem by Ross Wheeler,2013-09-16 03:01:00,
2013-09-15 23:10:00,62.4,54.0,30.07,SSW,210,3.0,0.0,73,0.00,,,0.00,oem by Ross Wheeler,2013-09-16 03:10:00,
2013-09-15 23:16:00,62.4,54.0,30.07,SW,220,1.0,0.0,73,0.00,,,0.00,oem by Ross Wheeler,2013-09-16 03:16:00,
2013-09-15 23:25:00,62.1,54.0,30.07,SW,216,2.0,0.0,74,0.00,,,0.00,oem by Ross Wheeler,2013-09-16 03:25:00,
2013-09-15 23:31:00,61.9,54.0,30.07,SSW,203,1.0,0.0,75,0.00,,,0.00,oem by Ross Wheeler,2013-09-16 03:31:00,
2013-09-15 23:40:00,61.8,54.0,30.07,SW,216,2.0,0.0,75,0.00,,,0.00,oem by Ross Wheeler,2013-09-16 03:40:00,
2013-09-15 23:46:00,61.6,54.0,30.07,SSW,206,3.0,0.0,76,0.00,,,0.00,oem by Ross Wheeler,2013-09-16 03:46:00,
2013-09-15 23:55:00,61.5,54.0,30.07,SSW,207,0.0,0.0,77,0.00,,,0.00,oem by Ross Wheeler,2013-09-16 03:55:00,